Torna al catalogo

STARLINK-31232

AttivoComunicazioniVLEO
NORAD 58831·PAYLOAD·🇺🇸 United States

Lanciato Jan 24, 2024 da Vandenberg Space Force Base

Loading…

Prossimi Passaggi (prossime 24 ore)

TLE

AggiornatoSource: CelesTrak SupGP

Epoca: Sep 14, 2026, 20:56 UTC

1 58831C 24017F   26257.87270833  .00041643  00000+0  13396-2 0  2577
2 58831  53.1597  43.8173 0001217  79.9654   2.0731 15.31670190    11

Traccia STARLINK-31232 in tempo reale con AllMySat

Download on the App Store